Time,TemperatureF,DewpointF,PressureIn,WindDirection,WindDirectionDegrees,WindSpeedMPH,WindSpeedGustMPH,Humidity,HourlyPrecipIn,Conditions,Clouds,dailyrainin,SoftwareType,DateUTC
2013-03-22 00:06:00,36.7,32.8,30.23,WNW,292,0.9,1.6,86,0.00,,,0.00,WUHU21623XXSP,2013-03-22 07:06:00,
2013-03-22 00:13:00,36.9,33.0,30.23,NNW,337,0.0,5.8,86,0.00,,,0.00,WUHU21623XXSP,2013-03-22 07:13:00,
2013-03-22 00:18:00,37.0,33.2,30.23,WNW,292,4.5,5.8,86,0.00,,,0.00,WUHU21623XXSP,2013-03-22 07:18:00,
2013-03-22 00:23:00,37.2,33.4,30.23,WNW,292,0.0,4.5,86,0.00,,,0.00,WUHU21623XXSP,2013-03-22 07:23:00,
2013-03-22 00:30:00,37.2,33.4,30.23,WNW,292,0.0,3.6,86,0.00,,,0.00,WUHU21623XXSP,2013-03-22 07:30:00,
2013-03-22 00:35:00,37.2,33.4,30.22,WNW,292,0.0,0.0,86,0.00,,,0.00,WUHU21623XXSP,2013-03-22 07:35:00,
2013-03-22 00:40:00,37.2,33.4,30.22,WNW,292,0.0,0.0,86,0.00,,,0.00,WUHU21623XXSP,2013-03-22 07:40:00,
2013-03-22 00:45:00,37.2,33.4,30.22,WNW,292,0.0,0.0,86,0.00,,,0.00,WUHU21623XXSP,2013-03-22 07:45:00,
2013-03-22 00:52:00,37.2,33.4,30.23,WNW,292,0.0,0.0,86,0.00,,,0.00,WUHU21623XXSP,2013-03-22 07:52:00,
2013-03-22 00:57:00,37.2,33.4,30.23,WNW,292,0.0,0.0,86,0.00,,,0.00,WUHU21623XXSP,2013-03-22 07:57:00,
2013-03-22 01:04:00,37.2,33.4,30.23,WNW,292,0.0,0.0,86,0.00,,,0.00,WUHU21623XXSP,2013-03-22 08:04:00,
2013-03-22 01:09:00,37.0,33.2,30.23,ESE,112,0.0,0.0,86,0.00,,,0.00,WUHU21623XXSP,2013-03-22 08:09:00,
2013-03-22 01:14:00,37.0,33.5,30.23,NNE,22,0.9,4.7,87,0.00,,,0.00,WUHU21623XXSP,2013-03-22 08:14:00,
2013-03-22 01:20:00,36.9,33.3,30.23,NNE,22,0.7,4.7,87,0.00,,,0.00,WUHU21623XXSP,2013-03-22 08:20:00,
2013-03-22 01:25:00,36.7,33.1,30.24,ESE,112,0.0,0.7,87,0.00,,,0.00,WUHU21623XXSP,2013-03-22 08:25:00,
2013-03-22 01:30:00,36.7,33.1,30.24,NW,315,0.0,2.7,87,0.00,,,0.00,WUHU21623XXSP,2013-03-22 08:30:00,
2013-03-22 01:35:00,36.5,33.2,30.23,NNW,337,2.0,2.7,88,0.00,,,0.00,WUHU21623XXSP,2013-03-22 08:35:00,
2013-03-22 01:43:00,36.1,32.9,30.24,NE,45,0.0,2.7,88,0.00,,,0.00,WUHU21623XXSP,2013-03-22 08:43:00,
2013-03-22 01:48:00,35.8,32.5,30.24,NE,45,0.0,2.7,88,0.00,,,0.00,WUHU21623XXSP,2013-03-22 08:48:00,
2013-03-22 01:53:00,35.4,32.1,30.24,NE,45,0.0,3.4,88,0.02,,,0.02,WUHU21623XXSP,2013-03-22 08:53:00,
2013-03-22 02:00:00,35.2,32.0,30.24,NW,315,0.7,3.4,88,0.02,,,0.02,WUHU21623XXSP,2013-03-22 09:00:00,
2013-03-22 02:06:00,35.2,32.0,30.24,NW,315,0.0,1.3,88,0.02,,,0.02,WUHU21623XXSP,2013-03-22 09:06:00,
2013-03-22 02:13:00,34.9,31.6,30.25,SSW,202,0.0,3.4,88,0.02,,,0.02,WUHU21623XXSP,2013-03-22 09:13:00,
2013-03-22 02:19:00,34.7,31.4,30.26,SW,225,0.0,3.4,88,0.02,,,0.02,WUHU21623XXSP,2013-03-22 09:19:00,
2013-03-22 02:25:00,34.3,31.1,30.25,NW,315,0.0,1.3,88,0.02,,,0.02,WUHU21623XXSP,2013-03-22 09:25:00,
2013-03-22 02:30:00,34.2,30.9,30.25,NW,315,0.0,1.3,88,0.02,,,0.02,WUHU21623XXSP,2013-03-22 09:30:00,
2013-03-22 02:35:00,34.2,30.9,30.26,NW,315,0.0,0.0,88,0.02,,,0.02,WUHU21623XXSP,2013-03-22 09:35:00,
2013-03-22 02:41:00,34.0,30.7,30.25,NW,315,0.0,0.0,88,0.02,,,0.02,WUHU21623XXSP,2013-03-22 09:41:00,
2013-03-22 02:46:00,33.8,30.8,30.25,NW,315,0.0,0.0,89,0.02,,,0.02,WUHU21623XXSP,2013-03-22 09:46:00,
2013-03-22 02:54:00,33.8,30.8,30.26,NW,315,0.0,0.0,89,0.00,,,0.02,WUHU21623XXSP,2013-03-22 09:54:00,
2013-03-22 02:59:00,33.6,30.6,30.26,NW,315,0.0,0.0,89,0.00,,,0.02,WUHU21623XXSP,2013-03-22 09:59:00,
2013-03-22 03:04:00,33.6,30.6,30.25,NW,315,0.0,0.0,89,0.00,,,0.02,WUHU21623XXSP,2013-03-22 10:04:00,
2013-03-22 03:09:00,33.6,30.6,30.25,NW,315,0.0,0.0,89,0.00,,,0.02,WUHU21623XXSP,2013-03-22 10:09:00,
2013-03-22 03:15:00,33.4,30.5,30.25,NW,315,0.0,0.0,89,0.00,,,0.02,WUHU21623XXSP,2013-03-22 10:15:00,
2013-03-22 03:21:00,33.4,30.5,30.26,NW,315,0.0,0.0,89,0.00,,,0.02,WUHU21623XXSP,2013-03-22 10:21:00,
2013-03-22 03:26:00,33.3,30.3,30.25,NW,315,0.0,0.0,89,0.00,,,0.02,WUHU21623XXSP,2013-03-22 10:26:00,
2013-03-22 03:33:00,33.1,30.2,30.26,NW,315,0.0,0.0,89,0.00,,,0.02,WUHU21623XXSP,2013-03-22 10:33:00,
2013-03-22 03:40:00,33.1,30.2,30.26,NW,315,0.0,0.0,89,0.00,,,0.02,WUHU21623XXSP,2013-03-22 10:40:00,
2013-03-22 03:47:00,32.9,30.0,30.26,NW,315,0.0,0.0,89,0.00,,,0.02,WUHU21623XXSP,2013-03-22 10:47:00,
2013-03-22 03:52:00,32.9,30.3,30.27,NW,315,0.0,0.0,90,0.00,,,0.02,WUHU21623XXSP,2013-03-22 10:52:00,
2013-03-22 03:57:00,32.9,30.3,30.27,NW,315,0.0,0.0,90,0.00,,,0.02,WUHU21623XXSP,2013-03-22 10:57:00,
2013-03-22 04:03:00,32.9,30.3,30.27,NW,315,0.0,0.0,90,0.00,,,0.02,WUHU21623XXSP,2013-03-22 11:03:00,
2013-03-22 04:10:00,32.9,30.3,30.27,NW,315,0.0,0.0,90,0.00,,,0.02,WUHU21623XXSP,2013-03-22 11:10:00,
2013-03-22 04:16:00,32.9,30.3,30.27,NW,315,0.0,0.0,90,0.00,,,0.02,WUHU21623XXSP,2013-03-22 11:16:00,
2013-03-22 04:21:00,32.9,30.3,30.27,NW,315,0.0,0.0,90,0.00,,,0.02,WUHU21623XXSP,2013-03-22 11:21:00,
2013-03-22 04:27:00,32.7,30.1,30.27,NW,315,0.0,0.0,90,0.00,,,0.02,WUHU21623XXSP,2013-03-22 11:27:00,
2013-03-22 04:32:00,32.7,30.1,30.27,NNE,22,0.0,3.4,90,0.00,,,0.02,WUHU21623XXSP,2013-03-22 11:32:00,
2013-03-22 04:37:00,32.7,30.4,30.27,NNE,22,0.0,3.4,91,0.00,,,0.02,WUHU21623XXSP,2013-03-22 11:37:00,
2013-03-22 04:44:00,32.7,30.4,30.27,NNE,22,0.0,0.2,91,0.00,,,0.02,WUHU21623XXSP,2013-03-22 11:44:00,
2013-03-22 04:49:00,32.9,30.5,30.27,NNE,22,0.0,0.9,91,0.00,,,0.02,WUHU21623XXSP,2013-03-22 11:49:00,
2013-03-22 04:57:00,32.7,30.4,30.27,NNE,22,0.0,0.9,91,0.00,,,0.02,WUHU21623XXSP,2013-03-22 11:57:00,
2013-03-22 05:02:00,32.7,30.4,30.27,NNE,22,0.0,0.0,91,0.00,,,0.02,WUHU21623XXSP,2013-03-22 12:02:00,
2013-03-22 05:08:00,32.9,30.5,30.27,NNE,22,0.0,0.0,91,0.00,,,0.02,WUHU21623XXSP,2013-03-22 12:08:00,
2013-03-22 05:13:00,32.9,30.5,30.27,NNE,22,0.0,0.0,91,0.00,,,0.02,WUHU21623XXSP,2013-03-22 12:13:00,
2013-03-22 05:18:00,32.7,30.4,30.28,NNE,22,0.0,0.0,91,0.00,,,0.02,WUHU21623XXSP,2013-03-22 12:18:00,
2013-03-22 05:23:00,32.7,30.4,30.27,NNE,22,0.0,0.0,91,0.00,,,0.02,WUHU21623XXSP,2013-03-22 12:23:00,
2013-03-22 05:29:00,32.7,30.4,30.27,NNE,22,0.0,0.4,91,0.00,,,0.02,WUHU21623XXSP,2013-03-22 12:29:00,
2013-03-22 05:36:00,32.7,30.4,30.27,NNE,22,0.0,0.4,91,0.00,,,0.02,WUHU21623XXSP,2013-03-22 12:36:00,
2013-03-22 05:43:00,32.7,30.4,30.28,NNE,22,0.0,0.0,91,0.00,,,0.02,WUHU21623XXSP,2013-03-22 12:43:00,
2013-03-22 05:48:00,32.7,30.4,30.28,NNE,22,0.0,0.0,91,0.00,,,0.02,WUHU21623XXSP,2013-03-22 12:48:00,
2013-03-22 05:53:00,32.7,30.4,30.28,NNE,22,0.0,0.0,91,0.00,,,0.02,WUHU21623XXSP,2013-03-22 12:53:00,
2013-03-22 05:59:00,32.7,30.4,30.27,NNE,22,0.0,0.0,91,0.00,,,0.02,WUHU21623XXSP,2013-03-22 12:59:00,
2013-03-22 06:04:00,32.9,30.5,30.28,NNE,22,0.0,0.0,91,0.00,,,0.02,WUHU21623XXSP,2013-03-22 13:04:00,
2013-03-22 06:10:00,32.9,30.5,30.29,NNE,22,0.0,0.0,91,0.00,,,0.02,WUHU21623XXSP,2013-03-22 13:10:00,
2013-03-22 06:15:00,32.9,30.5,30.28,NNE,22,0.0,0.0,91,0.00,,,0.02,WUHU21623XXSP,2013-03-22 13:15:00,
2013-03-22 06:20:00,32.9,30.5,30.29,NNE,22,0.0,0.0,91,0.00,,,0.02,WUHU21623XXSP,2013-03-22 13:20:00,
2013-03-22 06:25:00,32.9,30.8,30.29,NNE,22,0.0,0.0,92,0.00,,,0.02,WUHU21623XXSP,2013-03-22 13:25:00,
2013-03-22 06:31:00,32.9,30.8,30.29,NNE,22,0.0,0.0,92,0.00,,,0.02,WUHU21623XXSP,2013-03-22 13:31:00,
2013-03-22 06:36:00,32.9,30.8,30.29,NNE,22,0.0,0.0,92,0.00,,,0.02,WUHU21623XXSP,2013-03-22 13:36:00,
2013-03-22 06:43:00,32.9,30.8,30.29,NNE,22,0.0,0.0,92,0.00,,,0.02,WUHU21623XXSP,2013-03-22 13:43:00,
2013-03-22 06:48:00,32.9,30.8,30.29,NNE,22,0.0,0.0,92,0.00,,,0.02,WUHU21623XXSP,2013-03-22 13:48:00,
2013-03-22 06:53:00,32.9,30.8,30.29,NNE,22,0.0,0.0,92,0.00,,,0.02,WUHU21623XXSP,2013-03-22 13:53:00,
2013-03-22 06:58:00,32.9,30.8,30.30,NNE,22,0.0,0.0,92,0.00,,,0.02,WUHU21623XXSP,2013-03-22 13:58:00,
2013-03-22 07:03:00,32.9,30.8,30.30,NNE,22,0.0,0.0,92,0.00,,,0.02,WUHU21623XXSP,2013-03-22 14:03:00,
2013-03-22 07:11:00,32.9,30.8,30.30,NNE,22,0.0,0.0,92,0.00,,,0.02,WUHU21623XXSP,2013-03-22 14:11:00,
2013-03-22 07:20:00,32.9,30.8,30.30,NNE,22,0.0,0.0,92,0.00,,,0.02,WUHU21623XXSP,2013-03-22 14:20:00,
2013-03-22 07:27:00,33.1,31.0,30.30,NNE,22,0.0,0.0,92,0.00,,,0.02,WUHU21623XXSP,2013-03-22 14:27:00,
2013-03-22 07:34:00,33.1,31.0,30.30,NNE,22,0.0,0.0,92,0.00,,,0.02,WUHU21623XXSP,2013-03-22 14:34:00,
2013-03-22 07:39:00,33.1,31.0,30.30,NNE,22,0.0,0.0,92,0.00,,,0.02,WUHU21623XXSP,2013-03-22 14:39:00,
2013-03-22 07:45:00,33.1,31.0,30.30,NNE,22,0.0,0.0,92,0.00,,,0.02,WUHU21623XXSP,2013-03-22 14:45:00,
2013-03-22 07:50:00,33.3,31.1,30.30,NNE,22,0.0,0.0,92,0.02,,,0.04,WUHU21623XXSP,2013-03-22 14:50:00,
2013-03-22 07:55:00,33.3,31.1,30.30,NNE,22,0.0,0.0,92,0.02,,,0.04,WUHU21623XXSP,2013-03-22 14:55:00,
2013-03-22 08:01:00,33.3,31.1,30.30,NNE,22,0.0,0.0,92,0.02,,,0.04,WUHU21623XXSP,2013-03-22 15:01:00,
2013-03-22 08:07:00,33.4,31.3,30.31,NNE,22,0.0,0.0,92,0.02,,,0.04,WUHU21623XXSP,2013-03-22 15:07:00,
2013-03-22 08:13:00,33.4,31.3,30.30,NNE,22,0.0,0.0,92,0.02,,,0.04,WUHU21623XXSP,2013-03-22 15:13:00,
2013-03-22 08:18:00,33.4,31.3,30.30,NNE,22,0.0,0.0,92,0.02,,,0.04,WUHU21623XXSP,2013-03-22 15:18:00,
2013-03-22 08:23:00,33.4,31.3,30.31,NNE,22,0.0,0.0,92,0.02,,,0.04,WUHU21623XXSP,2013-03-22 15:23:00,
2013-03-22 08:28:00,33.6,31.3,30.31,NNE,22,0.0,0.0,92,0.02,,,0.04,WUHU21623XXSP,2013-03-22 15:28:00,
2013-03-22 08:35:00,33.4,31.3,30.31,NNE,22,0.0,0.9,92,0.02,,,0.04,WUHU21623XXSP,2013-03-22 15:35:00,
2013-03-22 08:44:00,33.6,31.5,30.31,NNE,22,0.0,0.0,92,0.02,,,0.04,WUHU21623XXSP,2013-03-22 15:44:00,
2013-03-22 08:49:00,33.8,31.6,30.31,NE,45,0.0,0.0,92,0.00,,,0.04,WUHU21623XXSP,2013-03-22 15:49:00,
2013-03-22 08:55:00,33.8,31.6,30.32,NE,45,0.0,0.0,92,0.00,,,0.04,WUHU21623XXSP,2013-03-22 15:55:00,
2013-03-22 09:00:00,34.0,31.8,30.32,NE,45,0.0,0.0,92,0.00,,,0.04,WUHU21623XXSP,2013-03-22 16:00:00,
2013-03-22 09:05:00,34.2,32.0,30.32,NE,45,0.0,0.0,92,0.00,,,0.04,WUHU21623XXSP,2013-03-22 16:05:00,
2013-03-22 09:10:00,34.3,32.2,30.32,NE,45,0.0,0.0,92,0.00,,,0.04,WUHU21623XXSP,2013-03-22 16:10:00,
2013-03-22 09:16:00,34.3,32.2,30.32,NNE,22,0.0,0.0,92,0.00,,,0.04,WUHU21623XXSP,2013-03-22 16:16:00,
2013-03-22 09:22:00,34.3,32.2,30.32,NE,45,0.0,0.0,92,0.00,,,0.04,WUHU21623XXSP,2013-03-22 16:22:00,
2013-03-22 09:30:00,34.9,32.7,30.32,SSW,202,2.0,2.7,92,0.00,,,0.04,WUHU21623XXSP,2013-03-22 16:30:00,
2013-03-22 09:36:00,35.4,33.3,30.32,South,180,0.0,3.4,92,0.02,,,0.06,WUHU21623XXSP,2013-03-22 16:36:00,
2013-03-22 09:43:00,35.4,33.3,30.33,SSW,202,0.0,3.4,92,0.02,,,0.06,WUHU21623XXSP,2013-03-22 16:43:00,
2013-03-22 09:48:00,35.8,33.6,30.33,SW,225,0.0,1.8,92,0.02,,,0.06,WUHU21623XXSP,2013-03-22 16:48:00,
2013-03-22 09:53:00,35.8,33.6,30.33,SW,225,0.0,2.2,92,0.02,,,0.06,WUHU21623XXSP,2013-03-22 16:53:00,
2013-03-22 09:58:00,35.8,33.6,30.33,SW,225,1.1,2.2,92,0.02,,,0.06,WUHU21623XXSP,2013-03-22 16:58:00,
2013-03-22 10:03:00,35.8,33.6,30.33,SW,225,0.0,2.0,92,0.02,,,0.06,WUHU21623XXSP,2013-03-22 17:03:00,
2013-03-22 10:09:00,35.8,33.6,30.33,SW,225,0.0,2.0,92,0.02,,,0.06,WUHU21623XXSP,2013-03-22 17:09:00,
2013-03-22 10:15:00,35.8,33.6,30.33,SW,225,0.0,1.6,92,0.04,,,0.08,WUHU21623XXSP,2013-03-22 17:15:00,
2013-03-22 10:20:00,36.1,34.0,30.33,SW,225,0.0,0.0,92,0.04,,,0.08,WUHU21623XXSP,2013-03-22 17:20:00,
2013-03-22 10:27:00,36.1,33.7,30.34,East,90,1.3,1.3,91,0.04,,,0.08,WUHU21623XXSP,2013-03-22 17:27:00,
2013-03-22 10:32:00,36.3,33.9,30.34,SE,135,0.9,1.3,91,0.02,,,0.08,WUHU21623XXSP,2013-03-22 17:32:00,
2013-03-22 10:38:00,36.5,34.1,30.34,SE,135,0.0,1.3,91,0.02,,,0.08,WUHU21623XXSP,2013-03-22 17:38:00,
2013-03-22 10:43:00,36.7,34.3,30.34,SE,135,0.0,0.9,91,0.04,,,0.10,WUHU21623XXSP,2013-03-22 17:43:00,
2013-03-22 10:51:00,36.7,34.3,30.34,SE,135,0.0,0.9,91,0.04,,,0.10,WUHU21623XXSP,2013-03-22 17:51:00,
2013-03-22 10:56:00,37.2,34.8,30.35,SE,135,0.0,1.3,91,0.04,,,0.10,WUHU21623XXSP,2013-03-22 17:56:00,
2013-03-22 11:02:00,37.8,35.1,30.34,SE,135,2.7,2.7,90,0.04,,,0.10,WUHU21623XXSP,2013-03-22 18:02:00,
2013-03-22 11:07:00,38.1,35.4,30.35,SSE,157,0.7,2.9,90,0.06,,,0.12,WUHU21623XXSP,2013-03-22 18:07:00,
2013-03-22 11:14:00,38.3,35.3,30.34,SE,135,0.0,2.9,89,0.04,,,0.12,WUHU21623XXSP,2013-03-22 18:14:00,
2013-03-22 11:19:00,38.3,35.3,30.35,East,90,0.0,1.6,89,0.04,,,0.12,WUHU21623XXSP,2013-03-22 18:19:00,
2013-03-22 11:27:00,38.1,35.1,30.35,SE,135,0.7,1.1,89,0.04,,,0.12,WUHU21623XXSP,2013-03-22 18:27:00,
2013-03-22 11:34:00,38.3,35.0,30.36,SE,135,0.0,1.1,88,0.06,,,0.14,WUHU21623XXSP,2013-03-22 18:34:00,
2013-03-22 11:40:00,38.5,35.2,30.35,SSE,157,1.8,1.8,88,0.06,,,0.14,WUHU21623XXSP,2013-03-22 18:40:00,
2013-03-22 11:45:00,39.4,35.8,30.35,ESE,112,0.0,1.8,87,0.04,,,0.14,WUHU21623XXSP,2013-03-22 18:45:00,
2013-03-22 11:53:00,39.6,36.0,30.35,South,180,2.5,2.7,87,0.06,,,0.17,WUHU21623XXSP,2013-03-22 18:53:00,
2013-03-22 11:58:00,40.6,36.7,30.35,SSE,157,1.8,2.5,86,0.06,,,0.17,WUHU21623XXSP,2013-03-22 18:58:00,
2013-03-22 12:03:00,41.4,37.4,30.35,South,180,0.0,2.5,86,0.06,,,0.19,WUHU21623XXSP,2013-03-22 19:03:00,
2013-03-22 12:08:00,42.1,38.2,30.35,SSW,202,1.3,2.7,86,0.06,,,0.19,WUHU21623XXSP,2013-03-22 19:08:00,
2013-03-22 12:14:00,42.4,38.2,30.35,SSW,202,0.4,2.7,85,0.06,,,0.19,WUHU21623XXSP,2013-03-22 19:14:00,
2013-03-22 12:19:00,44.2,39.4,30.35,South,180,0.4,4.0,83,0.08,,,0.21,WUHU21623XXSP,2013-03-22 19:19:00,
2013-03-22 12:24:00,45.0,39.8,30.35,South,180,3.8,5.6,82,0.08,,,0.21,WUHU21623XXSP,2013-03-22 19:24:00,
2013-03-22 12:32:00,45.5,40.0,30.35,SSE,157,0.0,5.6,81,0.08,,,0.21,WUHU21623XXSP,2013-03-22 19:32:00,
2013-03-22 12:37:00,46.0,39.9,30.35,SE,135,1.1,3.4,79,0.06,,,0.21,WUHU21623XXSP,2013-03-22 19:37:00,
2013-03-22 12:42:00,46.0,39.9,30.35,SE,135,0.4,2.7,79,0.06,,,0.21,WUHU21623XXSP,2013-03-22 19:42:00,
2013-03-22 12:47:00,46.0,38.9,30.35,NE,45,0.0,2.7,76,0.04,,,0.21,WUHU21623XXSP,2013-03-22 19:47:00,
2013-03-22 12:52:00,46.0,38.6,30.35,NW,315,0.0,1.6,75,0.04,,,0.21,WUHU21623XXSP,2013-03-22 19:52:00,
2013-03-22 12:57:00,46.2,38.8,30.35,WNW,292,0.0,2.7,75,0.04,,,0.21,WUHU21623XXSP,2013-03-22 19:57:00,
2013-03-22 13:05:00,47.1,39.6,30.35,WNW,292,0.0,3.6,75,0.02,,,0.21,WUHU21623XXSP,2013-03-22 20:05:00,
2013-03-22 13:12:00,47.3,39.4,30.35,SSE,157,1.3,3.8,74,0.02,,,0.21,WUHU21623XXSP,2013-03-22 20:12:00,
2013-03-22 13:17:00,48.0,40.0,30.34,SSE,157,1.3,3.8,74,0.00,,,0.21,WUHU21623XXSP,2013-03-22 20:17:00,
2013-03-22 13:24:00,48.0,39.7,30.35,SSE,157,0.7,2.9,73,0.00,,,0.21,WUHU21623XXSP,2013-03-22 20:24:00,
2013-03-22 13:31:00,47.8,39.2,30.35,South,180,0.0,1.6,72,0.00,,,0.21,WUHU21623XXSP,2013-03-22 20:31:00,
2013-03-22 13:36:00,48.0,39.7,30.35,SW,225,3.8,3.8,73,0.00,,,0.21,WUHU21623XXSP,2013-03-22 20:36:00,
2013-03-22 13:41:00,48.2,38.5,30.35,NNE,22,0.0,4.0,69,0.00,,,0.21,WUHU21623XXSP,2013-03-22 20:41:00,
2013-03-22 13:48:00,48.0,37.9,30.35,SSW,202,3.1,4.0,68,0.00,,,0.21,WUHU21623XXSP,2013-03-22 20:48:00,
2013-03-22 13:53:00,49.1,40.1,30.35,SE,135,0.4,3.1,71,0.00,,,0.21,WUHU21623XXSP,2013-03-22 20:53:00,
2013-03-22 13:58:00,50.4,40.6,30.34,SSE,157,4.3,4.3,69,0.00,,,0.21,WUHU21623XXSP,2013-03-22 20:58:00,
2013-03-22 14:06:00,50.5,40.8,30.34,SSE,157,1.8,4.3,69,0.00,,,0.21,WUHU21623XXSP,2013-03-22 21:06:00,
2013-03-22 14:12:00,50.9,39.9,30.34,SSE,157,0.0,2.7,66,0.00,,,0.21,WUHU21623XXSP,2013-03-22 21:12:00,
2013-03-22 14:18:00,50.7,39.3,30.34,WNW,292,0.0,2.7,65,0.02,,,0.23,WUHU21623XXSP,2013-03-22 21:18:00,
2013-03-22 14:23:00,50.0,37.9,30.34,WNW,292,0.0,3.1,63,0.02,,,0.23,WUHU21623XXSP,2013-03-22 21:23:00,
2013-03-22 14:28:00,49.3,36.8,30.34,WNW,292,0.7,2.5,62,0.02,,,0.23,WUHU21623XXSP,2013-03-22 21:28:00,
2013-03-22 14:33:00,49.3,37.2,30.34,WNW,292,0.0,2.5,63,0.02,,,0.23,WUHU21623XXSP,2013-03-22 21:33:00,
2013-03-22 14:38:00,49.3,37.2,30.34,WNW,292,0.0,1.8,63,0.02,,,0.23,WUHU21623XXSP,2013-03-22 21:38:00,
2013-03-22 14:43:00,49.3,37.6,30.34,NW,315,1.1,1.8,64,0.02,,,0.23,WUHU21623XXSP,2013-03-22 21:43:00,
2013-03-22 14:50:00,49.1,37.4,30.34,SSE,157,2.9,3.4,64,0.02,,,0.23,WUHU21623XXSP,2013-03-22 21:50:00,
2013-03-22 14:56:00,49.1,37.0,30.34,SSE,157,0.0,3.4,63,0.02,,,0.23,WUHU21623XXSP,2013-03-22 21:56:00,
2013-03-22 15:02:00,49.1,37.0,30.34,SE,135,0.0,2.9,63,0.02,,,0.23,WUHU21623XXSP,2013-03-22 22:02:00,
2013-03-22 15:08:00,48.9,36.5,30.34,NNE,22,1.8,2.9,62,0.02,,,0.23,WUHU21623XXSP,2013-03-22 22:08:00,
2013-03-22 15:15:00,48.0,36.0,30.34,ENE,67,1.3,4.5,63,0.00,,,0.23,WUHU21623XXSP,2013-03-22 22:15:00,
2013-03-22 15:20:00,46.6,35.0,30.35,NE,45,2.0,4.5,64,0.00,,,0.23,WUHU21623XXSP,2013-03-22 22:20:00,
2013-03-22 15:27:00,46.0,34.9,30.34,NE,45,1.1,4.3,65,0.00,,,0.23,WUHU21623XXSP,2013-03-22 22:27:00,
2013-03-22 15:32:00,45.0,33.9,30.35,East,90,0.0,3.6,65,0.00,,,0.23,WUHU21623XXSP,2013-03-22 22:32:00,
2013-03-22 15:37:00,44.4,34.1,30.35,SE,135,0.0,3.6,67,0.00,,,0.23,WUHU21623XXSP,2013-03-22 22:37:00,
2013-03-22 15:42:00,44.4,34.5,30.35,ENE,67,0.0,2.7,68,0.00,,,0.23,WUHU21623XXSP,2013-03-22 22:42:00,
2013-03-22 15:54:00,44.4,34.9,30.35,ENE,67,0.0,2.2,69,0.00,,,0.23,WUHU21623XXSP,2013-03-22 22:54:00,
2013-03-22 16:01:00,43.5,34.8,30.35,SE,135,0.0,0.2,71,0.00,,,0.23,WUHU21623XXSP,2013-03-22 23:01:00,
2013-03-22 16:06:00,43.3,34.6,30.35,SE,135,0.7,3.6,71,0.00,,,0.23,WUHU21623XXSP,2013-03-22 23:06:00,
2013-03-22 16:11:00,43.2,34.4,30.35,SE,135,0.0,3.6,71,0.00,,,0.23,WUHU21623XXSP,2013-03-22 23:11:00,
2013-03-22 16:16:00,43.2,34.8,30.35,SSE,157,2.2,5.4,72,0.00,,,0.23,WUHU21623XXSP,2013-03-22 23:16:00,
2013-03-22 16:22:00,43.2,34.8,30.35,SSE,157,0.0,5.4,72,0.00,,,0.23,WUHU21623XXSP,2013-03-22 23:22:00,
2013-03-22 16:27:00,43.0,34.9,30.35,SE,135,0.7,3.6,73,0.00,,,0.23,WUHU21623XXSP,2013-03-22 23:27:00,
2013-03-22 16:32:00,43.0,34.9,30.35,SE,135,0.7,3.6,73,0.00,,,0.23,WUHU21623XXSP,2013-03-22 23:32:00,
2013-03-22 16:37:00,42.4,34.7,30.35,SE,135,0.0,3.6,74,0.00,,,0.23,WUHU21623XXSP,2013-03-22 23:37:00,
2013-03-22 16:46:00,42.6,34.9,30.36,SE,135,0.0,3.6,74,0.00,,,0.23,WUHU21623XXSP,2013-03-22 23:46:00,
2013-03-22 16:51:00,42.4,34.7,30.36,SE,135,0.0,3.4,74,0.00,,,0.23,WUHU21623XXSP,2013-03-22 23:51:00,
2013-03-22 16:56:00,42.1,34.4,30.36,SSE,157,0.0,3.4,74,0.00,,,0.23,WUHU21623XXSP,2013-03-22 23:56:00,
2013-03-22 17:01:00,41.7,34.0,30.37,SE,135,2.0,2.9,74,0.00,,,0.23,WUHU21623XXSP,2013-03-23 00:01:00,
2013-03-22 17:07:00,41.9,34.2,30.36,South,180,0.0,2.0,74,0.00,,,0.23,WUHU21623XXSP,2013-03-23 00:07:00,
2013-03-22 17:13:00,42.1,34.4,30.36,South,180,0.0,2.0,74,0.00,,,0.23,WUHU21623XXSP,2013-03-23 00:13:00,
2013-03-22 17:22:00,43.0,35.3,30.37,SSE,157,2.2,6.3,74,0.00,,,0.23,WUHU21623XXSP,2013-03-23 00:22:00,
2013-03-22 17:28:00,43.3,35.3,30.36,SSE,157,0.4,5.1,73,0.00,,,0.23,WUHU21623XXSP,2013-03-23 00:28:00,
2013-03-22 17:33:00,43.9,36.1,30.36,NW,315,2.5,6.3,74,0.00,,,0.23,WUHU21623XXSP,2013-03-23 00:33:00,
2013-03-22 17:39:00,43.9,35.4,30.36,NE,45,3.1,7.8,72,0.00,,,0.23,WUHU21623XXSP,2013-03-23 00:39:00,
2013-03-22 17:44:00,44.1,34.5,30.36,NNE,22,0.0,5.4,69,0.00,,,0.23,WUHU21623XXSP,2013-03-23 00:44:00,
2013-03-22 17:49:00,44.2,34.7,30.36,NNE,22,0.0,5.4,69,0.00,,,0.23,WUHU21623XXSP,2013-03-23 00:49:00,
2013-03-22 17:54:00,44.2,34.7,30.37,NNW,337,0.0,2.9,69,0.00,,,0.23,WUHU21623XXSP,2013-03-23 00:54:00,
2013-03-22 18:06:00,44.4,34.9,30.36,NNW,337,0.0,1.6,69,0.00,,,0.23,WUHU21623XXSP,2013-03-23 01:06:00,
2013-03-22 18:12:00,44.2,34.3,30.37,NNW,337,0.0,2.2,68,0.00,,,0.23,WUHU21623XXSP,2013-03-23 01:12:00,
2013-03-22 18:18:00,43.5,34.1,30.36,SE,135,0.0,2.2,69,0.00,,,0.23,WUHU21623XXSP,2013-03-23 01:18:00,
2013-03-22 18:24:00,43.3,34.3,30.37,SSE,157,0.0,1.1,70,0.00,,,0.23,WUHU21623XXSP,2013-03-23 01:24:00,
2013-03-22 18:30:00,43.3,34.3,30.36,SSE,157,2.9,2.9,70,0.00,,,0.23,WUHU21623XXSP,2013-03-23 01:30:00,
2013-03-22 18:40:00,42.6,33.6,30.36,ENE,67,0.7,2.9,70,0.00,,,0.23,WUHU21623XXSP,2013-03-23 01:40:00,
2013-03-22 18:45:00,41.9,33.2,30.36,SSE,157,0.0,0.0,71,0.00,,,0.23,WUHU21623XXSP,2013-03-23 01:45:00,
2013-03-22 18:50:00,41.5,33.2,30.36,SSE,157,0.0,0.0,72,0.00,,,0.23,WUHU21623XXSP,2013-03-23 01:50:00,
2013-03-22 18:55:00,41.4,33.0,30.36,SSE,157,0.0,0.0,72,0.00,,,0.23,WUHU21623XXSP,2013-03-23 01:55:00,
2013-03-22 19:00:00,41.0,32.6,30.36,SSE,157,0.0,0.0,72,0.00,,,0.23,WUHU21623XXSP,2013-03-23 02:00:00,
2013-03-22 19:05:00,40.6,32.6,30.36,SSE,157,0.0,0.0,73,0.00,,,0.23,WUHU21623XXSP,2013-03-23 02:05:00,
2013-03-22 19:10:00,40.3,32.3,30.36,SSE,157,0.0,0.0,73,0.00,,,0.23,WUHU21623XXSP,2013-03-23 02:10:00,
2013-03-22 19:15:00,39.7,32.1,30.36,SSE,157,0.0,0.0,74,0.00,,,0.23,WUHU21623XXSP,2013-03-23 02:15:00,
2013-03-22 19:20:00,39.4,31.7,30.36,SSE,157,0.0,0.0,74,0.00,,,0.23,WUHU21623XXSP,2013-03-23 02:20:00,
2013-03-22 19:25:00,38.8,31.6,30.37,SE,135,0.0,2.7,75,0.00,,,0.23,WUHU21623XXSP,2013-03-23 02:25:00,
2013-03-22 19:32:00,38.5,31.2,30.36,SE,135,0.0,2.7,75,0.00,,,0.23,WUHU21623XXSP,2013-03-23 02:32:00,
2013-03-22 19:37:00,37.9,31.0,30.36,South,180,0.0,0.0,76,0.00,,,0.23,WUHU21623XXSP,2013-03-23 02:37:00,
2013-03-22 19:43:00,37.4,30.8,30.37,South,180,0.0,0.0,77,0.00,,,0.23,WUHU21623XXSP,2013-03-23 02:43:00,
2013-03-22 19:50:00,37.0,30.8,30.37,South,180,0.0,0.0,78,0.00,,,0.23,WUHU21623XXSP,2013-03-23 02:50:00,
2013-03-22 19:55:00,36.1,30.2,30.37,South,180,0.0,0.0,79,0.00,,,0.23,WUHU21623XXSP,2013-03-23 02:55:00,
2013-03-22 20:01:00,36.1,30.2,30.37,South,180,0.0,0.0,79,0.00,,,0.23,WUHU21623XXSP,2013-03-23 03:01:00,
2013-03-22 20:08:00,35.4,29.8,30.37,South,180,0.0,0.0,80,0.00,,,0.23,WUHU21623XXSP,2013-03-23 03:08:00,
2013-03-22 20:13:00,34.9,29.3,30.38,South,180,0.0,0.0,80,0.00,,,0.23,WUHU21623XXSP,2013-03-23 03:13:00,
2013-03-22 20:19:00,34.7,29.1,30.38,South,180,0.0,0.0,80,0.00,,,0.23,WUHU21623XXSP,2013-03-23 03:19:00,
2013-03-22 20:24:00,34.3,29.0,30.38,South,180,0.0,0.0,81,0.00,,,0.23,WUHU21623XXSP,2013-03-23 03:24:00,
2013-03-22 20:30:00,34.3,29.0,30.38,South,180,0.0,0.0,81,0.00,,,0.23,WUHU21623XXSP,2013-03-23 03:30:00,
2013-03-22 20:38:00,33.6,28.6,30.39,South,180,0.0,0.0,82,0.00,,,0.23,WUHU21623XXSP,2013-03-23 03:38:00,
2013-03-22 20:43:00,33.1,28.4,30.39,South,180,0.0,0.0,83,0.00,,,0.23,WUHU21623XXSP,2013-03-23 03:43:00,
2013-03-22 20:50:00,32.9,28.3,30.39,South,180,0.0,0.0,83,0.00,,,0.23,WUHU21623XXSP,2013-03-23 03:50:00,
2013-03-22 20:55:00,32.5,28.2,30.40,South,180,0.0,0.0,84,0.00,,,0.23,WUHU21623XXSP,2013-03-23 03:55:00,
2013-03-22 21:02:00,32.5,28.2,30.40,South,180,0.0,0.0,84,0.00,,,0.23,WUHU21623XXSP,2013-03-23 04:02:00,
2013-03-22 21:07:00,32.0,27.8,30.40,South,180,0.0,0.0,84,0.00,,,0.23,WUHU21623XXSP,2013-03-23 04:07:00,
2013-03-22 21:13:00,31.8,27.6,30.40,SSW,202,0.0,0.0,84,0.00,,,0.23,WUHU21623XXSP,2013-03-23 04:13:00,
2013-03-22 21:19:00,31.6,27.7,30.40,SSW,202,0.0,0.0,85,0.00,,,0.23,WUHU21623XXSP,2013-03-23 04:19:00,
2013-03-22 21:25:00,31.3,27.3,30.41,SSW,202,0.0,0.0,85,0.00,,,0.23,WUHU21623XXSP,2013-03-23 04:25:00,
2013-03-22 21:31:00,31.1,27.4,30.40,SSW,202,0.0,0.0,86,0.00,,,0.23,WUHU21623XXSP,2013-03-23 04:31:00,
2013-03-22 21:38:00,30.9,27.2,30.41,South,180,0.0,0.0,86,0.00,,,0.23,WUHU21623XXSP,2013-03-23 04:38:00,
2013-03-22 21:47:00,30.7,27.1,30.41,South,180,0.0,0.0,86,0.00,,,0.23,WUHU21623XXSP,2013-03-23 04:47:00,
2013-03-22 21:52:00,30.4,27.0,30.41,SSW,202,0.0,0.0,87,0.00,,,0.23,WUHU21623XXSP,2013-03-23 04:52:00,
2013-03-22 21:57:00,30.2,26.8,30.41,SSW,202,0.0,0.0,87,0.00,,,0.23,WUHU21623XXSP,2013-03-23 04:57:00,
2013-03-22 22:03:00,30.0,26.6,30.41,SSW,202,0.0,0.0,87,0.00,,,0.23,WUHU21623XXSP,2013-03-23 05:03:00,
2013-03-22 22:08:00,30.0,26.9,30.41,SSW,202,0.0,0.0,88,0.00,,,0.23,WUHU21623XXSP,2013-03-23 05:08:00,
2013-03-22 22:13:00,29.8,26.7,30.41,SSW,202,0.0,0.0,88,0.00,,,0.23,WUHU21623XXSP,2013-03-23 05:13:00,
2013-03-22 22:19:00,29.8,26.7,30.42,SSW,202,0.0,0.0,88,0.00,,,0.23,WUHU21623XXSP,2013-03-23 05:19:00,
2013-03-22 22:24:00,29.5,26.4,30.41,SSW,202,0.0,0.0,88,0.00,,,0.23,WUHU21623XXSP,2013-03-23 05:24:00,
2013-03-22 22:30:00,29.5,26.4,30.42,SSW,202,0.0,0.0,88,0.00,,,0.23,WUHU21623XXSP,2013-03-23 05:30:00,
2013-03-22 22:36:00,29.1,26.0,30.41,SSW,202,0.0,0.0,88,0.00,,,0.23,WUHU21623XXSP,2013-03-23 05:36:00,
2013-03-22 22:41:00,29.1,26.0,30.41,SSW,202,0.0,0.0,88,0.00,,,0.23,WUHU21623XXSP,2013-03-23 05:41:00,
2013-03-22 22:46:00,28.9,26.1,30.41,SSW,202,0.0,0.0,89,0.00,,,0.23,WUHU21623XXSP,2013-03-23 05:46:00,
2013-03-22 22:53:00,28.8,26.0,30.41,SSW,202,0.0,0.0,89,0.00,,,0.23,WUHU21623XXSP,2013-03-23 05:53:00,
2013-03-22 22:59:00,28.6,25.8,30.41,SSW,202,0.0,0.0,89,0.00,,,0.23,WUHU21623XXSP,2013-03-23 05:59:00,
2013-03-22 23:04:00,28.6,25.8,30.41,SSW,202,0.0,0.0,89,0.00,,,0.23,WUHU21623XXSP,2013-03-23 06:04:00,
2013-03-22 23:09:00,28.6,25.8,30.41,SSW,202,0.0,0.0,89,0.00,,,0.23,WUHU21623XXSP,2013-03-23 06:09:00,
2013-03-22 23:15:00,28.6,25.8,30.41,SSW,202,0.0,0.0,89,0.00,,,0.23,WUHU21623XXSP,2013-03-23 06:15:00,
2013-03-22 23:22:00,28.6,25.8,30.41,SSW,202,0.0,0.0,89,0.00,,,0.23,WUHU21623XXSP,2013-03-23 06:22:00,
2013-03-22 23:28:00,28.6,26.1,30.41,SSW,202,0.0,0.0,90,0.00,,,0.23,WUHU21623XXSP,2013-03-23 06:28:00,
2013-03-22 23:35:00,28.2,25.7,30.41,SSW,202,0.0,0.0,90,0.00,,,0.23,WUHU21623XXSP,2013-03-23 06:35:00,
2013-03-22 23:40:00,28.2,25.7,30.41,SSW,202,0.0,0.0,90,0.00,,,0.23,WUHU21623XXSP,2013-03-23 06:40:00,
2013-03-22 23:48:00,28.2,25.7,30.41,SSW,202,0.0,0.0,90,0.00,,,0.23,WUHU21623XXSP,2013-03-23 06:48:00,
2013-03-22 23:57:00,28.0,25.5,30.42,SSW,202,0.0,0.0,90,0.00,,,0.23,WUHU21623XXSP,2013-03-23 06:57:00,